Regional Weather Roundup
Issued by NWS

Home | Current Version | Previous Version | Graphics & Text | Print | Product List | Glossary On
Versions: 1 2 3 4 5 6 7 8 9 10 11 12 13 14 15 16 17 18 19 20 21 22 23 24 25 26 27 28 29 30 31 32 33 34 35 36 37 38 39 40 41 42 43 44 45 46 47 48 49 50
000
ASUS43 KIND 310859
RWRIN

WEATHER ROUNDUP FOR INDIANA
NATIONAL WEATHER SERVICE INDIANAPOLIS IN
500 AM EDT MON AUG 31 2015

NOTE: "FAIR" INDICATES FEW OR NO CLOUDS BELOW 12,000 FEET WITH NO
SIGNIFICANT WEATHER AND/OR OBSTRUCTIONS TO VISIBILITY.

* - STATION DOES NOT REPORT WEATHER SUCH AS PRECIPITATION OR FOG.

+ - STATION NOT QUALITY CONTROLLED BY THE NATIONAL WEATHER SERVICE.
    USE DATA WITH CAUTION...ESPECIALLY DEWPOINT AND RELATIVE
    HUMIDITY OBSERVATIONS.

INZ001>003-010>013-019-020-311000-
NORTHWEST INDIANA

CITY           SKY/WX    TMP DP  RH WIND       PRES   REMARKS
KNOX *+        CLOUDY    59  59 100 CALM      30.03S VSB 1/4
MONTICELLO +   CLEAR     69  69 100 CALM      30.03S
RENSSELAER +   FOG       61  61 100 CALM      30.04S VSB 1/4

$$

LMZ046-743>745-311000-
SOUTHERN LAKE MICHIGAN

STATION/POSITION TIME  TEMP    WIND        PRES    WAVE
                       AIR SEA DIR/SP/G            HT
                 (UTC) (F)     (DEG/KT/KT) (MB)    (FT)
BURNS HARBOR     0800   68     170/  3/  5 1017.3F
MICHIGAN CITY    0800   66     120/  6/  7   N/A
5NW MICH CITY    0800   68 71  170/  4/  6   N/A     0

$$

INZ004-005-014>016-021>024-311000-
NORTH CENTRAL INDIANA

CITY           SKY/WX    TMP DP  RH WIND       PRES   REMARKS
GOSHEN         FOG       62  61  96 CALM      30.05S VSB 1/4
SOUTH BEND     MOCLDY    62  60  93 CALM      30.06R FOG
WARSAW +       FOG       61  61 100 CALM      30.05S VSB<1/4

$$

INZ006>009-017-018-025>027-311000-
NORTHEAST INDIANA

CITY           SKY/WX    TMP DP  RH WIND       PRES   REMARKS
ANGOLA *+      CLOUDY    63  63 100 CALM      30.06R VSB 0
FORT WAYNE     PTCLDY    65  63  93 S3        30.06S FOG

$$

INZ028-029-035-036-043>045-051>053-311000-
WEST CENTRAL INDIANA

CITY           SKY/WX    TMP DP  RH WIND       PRES   REMARKS
CRAWFORDSVL +  CLEAR     61  61 100 CALM      30.06S FOG
GREENCASTLE +  FOG       64  63  94 CALM      30.07S VSB 1
LAFAYETTE      FOG       65  64  97 CALM      30.04S VSB 1/2
TERRE HAUTE    FOG       65  64  97 CALM      30.05S VSB 1/4

$$

INZ030>032-037>040-046>048-054>057-064-065-311000-
CENTRAL INDIANA

CITY           SKY/WX    TMP DP  RH WIND       PRES   REMARKS
FRANKFORT +    CLEAR    N/A N/A N/A CALM      30.08R FOG
GREENWOOD *+   PTCLDY    68  64  88 CALM      30.07S
INDIANAPOLIS   MOCLDY    69  66  90 SW3       30.05S
-EAGLE CREEK   PTCLDY    68  67  96 CALM      30.06R
KOKOMO *+      CLEAR     64  61  88 S3        30.06R
MT COMFORT *+  PTCLDY    68 N/A N/A SW3       30.07S
SHELBYVILLE    CLEAR     67  63  87 CALM      30.06S

$$

INZ033-034-041-042-049-050-058-059-311000-
EAST CENTRAL INDIANA

CITY           SKY/WX    TMP DP  RH WIND       PRES   REMARKS
MUNCIE         CLEAR     67  66  97 SW6       30.07R

$$

INZ060-061-067>069-081>083-085>088-311000-
SOUTHWEST INDIANA

CITY           SKY/WX    TMP DP  RH WIND       PRES   REMARKS
EVANSVILLE     CLEAR     68  66  93 CALM      30.06S FOG
HUNTINGBURG *+ CLEAR     66  64  94 CALM      30.07S

$$

INZ062-063-066-070>080-084-089>092-311000-
SOUTH CENTRAL AND SOUTHEAST INDIANA

CITY           SKY/WX    TMP DP  RH WIND       PRES   REMARKS
BLOOMINGTON    CLEAR     66  65  96 CALM      30.07R FOG
MADISON *+     PTCLDY    66  64  94 CALM      30.10S
SEYMOUR +      CLOUDY    64  64 100 CALM      30.07R FOG

$$




USA.gov is the U.S. government's official web portal to all federal, state and local government web resources and services.